• In Latvia
  • List of Countries
  • For 7 days
  • Water Temperature
  • Satellite Maps
  • Weather Map
  • Weather Widgets
  • user-avatar
    Login

    Hourly Weather Sherobod

    Today, 18 January, Thursday

    Time Temperature Precipitation Wind Pressure Humidity
    00:00 +3°C° 0 mm 3 mps 729 mmHg 45%
    01:00 +3°C° 0 mm 3 mps 728 mmHg 42%
    02:00 +3°C° 0 mm 3 mps 728 mmHg 40%
    03:00 +3°C° 0 mm 3 mps 728 mmHg 39%
    04:00 +2°C° 0 mm 3 mps 728 mmHg 37%
    05:00 +2°C° 0 mm 3 mps 728 mmHg 36%
    06:00 +2°C° 0 mm 3 mps 728 mmHg 35%
    07:00 +3°C° 0 mm 3 mps 728 mmHg 34%
    08:00 +5°C° 0 mm 4 mps 728 mmHg 31%
    09:00 +7°C° 0 mm 4 mps 728 mmHg 27%
    10:00 +9°C° 0 mm 5 mps 728 mmHg 23%
    11:00 +10°C° 0 mm 5 mps 728 mmHg 22%
    12:00 +12°C° 0 mm 5 mps 727 mmHg 20%
    13:00 +13°C° 0 mm 5 mps 727 mmHg 19%
    14:00 +13°C° 0 mm 5 mps 726 mmHg 20%
    15:00 +12°C° 0 mm 4 mps 726 mmHg 21%
    16:00 +12°C° 0 mm 4 mps 726 mmHg 22%
    17:00 +11°C° 0 mm 4 mps 726 mmHg 24%
    18:00 +10°C° 0 mm 3 mps 725 mmHg 26%
    19:00 +10°C° 0 mm 3 mps 725 mmHg 27%
    20:00 +10°C° 0 mm 3 mps 725 mmHg 27%
    21:00 +9°C° 0 mm 3 mps 725 mmHg 27%
    22:00 +9°C° 0 mm 3 mps 724 mmHg 27%
    23:00 +9°C° 0 mm 3 mps 724 mmHg 27%

    Tomorrow, 19 January, Friday

    Time Temperature Precipitation Wind Pressure Humidity
    00:00 +9°C° 0 mm 3 mps 724 mmHg 27%
    01:00 +9°C° 0 mm 3 mps 724 mmHg 27%
    02:00 +9°C° 0 mm 2 mps 724 mmHg 28%
    03:00 +8°C° 0 mm 2 mps 724 mmHg 29%
    04:00 +8°C° 0 mm 2 mps 724 mmHg 30%
    05:00 +8°C° 0 mm 2 mps 725 mmHg 31%
    06:00 +7°C° 0 mm 2 mps 725 mmHg 31%
    07:00 +7°C° 0 mm 2 mps 725 mmHg 32%
    08:00 +9°C° 0 mm 2 mps 726 mmHg 28%
    09:00 +12°C° 0 mm 3 mps 727 mmHg 24%
    10:00 +14°C° 0 mm 3 mps 727 mmHg 19%
    11:00 +15°C° 0 mm 4 mps 727 mmHg 18%
    12:00 +17°C° 0 mm 4 mps 727 mmHg 16%
    13:00 +18°C° 0 mm 4 mps 727 mmHg 15%
    14:00 +17°C° 0 mm 4 mps 728 mmHg 16%
    15:00 +17°C° 0 mm 4 mps 728 mmHg 17%
    16:00 +15°C° 0 mm 4 mps 728 mmHg 18%
    17:00 +14°C° 0 mm 4 mps 728 mmHg 20%
    18:00 +13°C° 0 mm 4 mps 728 mmHg 21%
    19:00 +12°C° 0 mm 5 mps 729 mmHg 23%
    20:00 +12°C° 0 mm 5 mps 729 mmHg 22%
    21:00 +10°C° 0 mm 5 mps 728 mmHg 21%
    22:00 +10°C° 0 mm 6 mps 728 mmHg 21%
    23:00 +10°C° 0 mm 6 mps 728 mmHg 21%

    Day after tomorrow, 20 January, Saturday

    Time Temperature Precipitation Wind Pressure Humidity
    00:00 +10°C° 0 mm 5 mps 728 mmHg 21%
    01:00 +10°C° 0 mm 5 mps 728 mmHg 21%
    02:00 +9°C° 0 mm 5 mps 728 mmHg 21%
    03:00 +9°C° 0 mm 5 mps 727 mmHg 21%
    04:00 +10°C° 0 mm 4 mps 727 mmHg 21%
    05:00 +10°C° 0 mm 4 mps 727 mmHg 21%
    06:00 +8°C° 0 mm 4 mps 727 mmHg 21%
    07:00 +8°C° 0 mm 4 mps 727 mmHg 21%
    08:00 +11°C° 0 mm 4 mps 727 mmHg 18%
    09:00 +14°C° 0 mm 4 mps 727 mmHg 15%
    10:00 +17°C° 0 mm 4 mps 727 mmHg 12%
    11:00 +18°C° 0 mm 4 mps 726 mmHg 11%
    12:00 +19°C° 0 mm 4 mps 726 mmHg 10%
    13:00 +20°C° 0 mm 5 mps 725 mmHg 8%
    14:00 +20°C° 0 mm 4 mps 725 mmHg 9%
    15:00 +19°C° 0 mm 3 mps 724 mmHg 10%
    16:00 +18°C° 0 mm 3 mps 724 mmHg 11%
    17:00 +16°C° 0 mm 3 mps 724 mmHg 12%
    18:00 +15°C° 0 mm 2 mps 723 mmHg 13%
    19:00 +13°C° 0 mm 2 mps 723 mmHg 14%
    20:00 +13°C° 0 mm 2 mps 723 mmHg 14%
    21:00 +12°C° 0 mm 2 mps 723 mmHg 13%
    22:00 +12°C° 0 mm 2 mps 723 mmHg 13%
    23:00 +10°C° 0 mm 2 mps 722 mmHg 13%

    21 January, Sunday

    Time Temperature Precipitation Wind Pressure Humidity
    00:00 +11°C° 0 mm 1 mps 722 mmHg 13%
    01:00 +10°C° 0 mm 1 mps 722 mmHg 12%
    02:00 +9°C° 0 mm 1 mps 722 mmHg 14%
    03:00 +9°C° 0 mm 1 mps 722 mmHg 15%
    04:00 +7°C° 0 mm 0 mps 722 mmHg 17%
    05:00 +8°C° 0 mm 1 mps 722 mmHg 19%
    06:00 +8°C° 0 mm 1 mps 722 mmHg 22%
    07:00 +7°C° 0 mm 1 mps 723 mmHg 25%
    08:00 +10°C° 0 mm 1 mps 723 mmHg 20%
    09:00 +13°C° 0 mm 1 mps 724 mmHg 16%
    10:00 +16°C° 0 mm 1 mps 725 mmHg 12%
    11:00 +18°C° 0 mm 1 mps 725 mmHg 12%
    12:00 +17°C° 0 mm 2 mps 724 mmHg 12%
    13:00 +18°C° 0 mm 2 mps 724 mmHg 11%
    14:00 +17°C° 0 mm 2 mps 724 mmHg 13%
    15:00 +16°C° 0 mm 3 mps 724 mmHg 15%
    16:00 +16°C° 0 mm 3 mps 724 mmHg 17%
    17:00 +14°C° 0 mm 2 mps 725 mmHg 20%
    18:00 +12°C° 0 mm 2 mps 725 mmHg 23%
    19:00 +10°C° 0 mm 2 mps 725 mmHg 26%
    20:00 +9°C° 0 mm 2 mps 725 mmHg 27%
    21:00 +8°C° 0 mm 2 mps 725 mmHg 29%
    22:00 +8°C° 0 mm 2 mps 726 mmHg 31%
    23:00 +8°C° 0 mm 1 mps 726 mmHg 32%

    22 January, Monday

    Time Temperature Precipitation Wind Pressure Humidity
    00:00 +7°C° 0 mm 1 mps 726 mmHg 34%
    01:00 +7°C° 0 mm 1 mps 726 mmHg 35%
    02:00 +6°C° 0 mm 1 mps 726 mmHg 37%
    03:00 +6°C° 0 mm 1 mps 726 mmHg 38%
    04:00 +5°C° 0 mm 1 mps 726 mmHg 39%
    05:00 +5°C° 0 mm 1 mps 726 mmHg 41%
    06:00 +5°C° 0 mm 1 mps 726 mmHg 42%
    07:00 +4°C° 0 mm 1 mps 727 mmHg 44%
    08:00 +6°C° 0 mm 1 mps 727 mmHg 39%
    09:00 +8°C° 0 mm 1 mps 727 mmHg 34%
    10:00 +10°C° 0 mm 1 mps 728 mmHg 30%
    11:00 +10°C° 0 mm 2 mps 728 mmHg 28%
    12:00 +12°C° 0 mm 2 mps 727 mmHg 27%
    13:00 +13°C° 0 mm 2 mps 727 mmHg 25%
    14:00 +13°C° 0 mm 2 mps 727 mmHg 26%
    15:00 +12°C° 0 mm 2 mps 727 mmHg 27%
    16:00 +11°C° 0 mm 3 mps 727 mmHg 28%
    17:00 +10°C° 0 mm 2 mps 727 mmHg 32%
    18:00 +9°C° 0 mm 2 mps 727 mmHg 35%
    19:00 +8°C° 0 mm 2 mps 727 mmHg 39%
    20:00 +8°C° 0 mm 1 mps 727 mmHg 40%
    21:00 +8°C° 0 mm 1 mps 727 mmHg 42%
    22:00 +7°C° 0 mm 1 mps 727 mmHg 44%
    23:00 +7°C° 0 mm 1 mps 727 mmHg 44%

    23 January, Tuesday

    Time Temperature Precipitation Wind Pressure Humidity
    00:00 +6°C° 0 mm 1 mps 726 mmHg 45%
    01:00 +6°C° 0 mm 1 mps 726 mmHg 46%
    02:00 +6°C° 0 mm 1 mps 726 mmHg 46%
    03:00 +5°C° 0 mm 1 mps 726 mmHg 46%
    04:00 +5°C° 0 mm 1 mps 726 mmHg 45%
    05:00 +5°C° 0 mm 1 mps 726 mmHg 44%
    06:00 +5°C° 0 mm 1 mps 726 mmHg 43%
    07:00 +4°C° 0 mm 2 mps 726 mmHg 42%
    08:00 +6°C° 0 mm 2 mps 726 mmHg 37%
    09:00 +9°C° 0 mm 2 mps 727 mmHg 32%
    10:00 +11°C° 0 mm 3 mps 727 mmHg 26%
    11:00 +12°C° 0 mm 3 mps 726 mmHg 24%
    12:00 +13°C° 0 mm 3 mps 726 mmHg 22%
    13:00 +14°C° 0 mm 3 mps 725 mmHg 20%
    14:00 +14°C° 0 mm 3 mps 725 mmHg 20%
    15:00 +14°C° 0 mm 3 mps 725 mmHg 21%
    16:00 +14°C° 0 mm 2 mps 724 mmHg 21%
    17:00 +13°C° 0 mm 2 mps 724 mmHg 24%
    18:00 +12°C° 0 mm 2 mps 724 mmHg 26%
    19:00 +9°C° 0 mm 2 mps 724 mmHg 28%
    20:00 +9°C° 0 mm 2 mps 724 mmHg 28%
    21:00 +9°C° 0 mm 3 mps 724 mmHg 27%
    22:00 +9°C° 0 mm 3 mps 724 mmHg 27%
    23:00 +9°C° 0 mm 3 mps 723 mmHg 26%
    Show more